2024-166B

Last updated on Fri Oct 04 2024 00:02:04 GMT+0000 (Coordinated Universal Time)

1 61180U 24166B 24277.57261211 .00076086 00000+0 40856-3 0 9994 2 61180 96.7663 172.6780 0014376 175.6088 184.5310 15.79893635 2552
UTC large
Height (km)
Speed (km/s)
/
Latitude / Longitude
Inclination (degrees)
Orbital Period (minutes)
Azimuth
Elevation
Range (km)
Doppler Factor

Next 0 passes for location: London (51.5072 / 0.1276)

Sorry there are no passes over London.